This is the latest recevied weather packets stored in our database for station/object IW1QQG-13. If no packets are shown the sender has not sent any weather packets the latest 1 day(s).
| Time | Temp. | Humidity | Pressure | Rain* | Wind** | Luminosity | Snow |
|---|---|---|---|---|---|---|---|
| 1778016956 | 13.89° C | 89% | 1012.9 hPa | 0 mm | 0 m/s | 0 W/m² | - |
| 1778016356 | 13.89° C | 92% | 1013.2 hPa | 0 mm | 0.45 m/s, 237° | 0 W/m² | - |
| 1778015754 | 13.89° C | 91% | 1013.2 hPa | 0 mm | 0.45 m/s, 233° | 0 W/m² | - |
| 1778015154 | 13.89° C | 90% | 1013.2 hPa | 0 mm | 0.89 m/s, 171° | 0 W/m² | - |
| 1778014555 | 13.89° C | 92% | 1013.5 hPa | 0 mm | 0.89 m/s, 258° | 0 W/m² | - |
| 1778013954 | 13.89° C | 93% | 1013.5 hPa | 0 mm | 0 m/s | 0 W/m² | - |
| 1778013354 | 13.89° C | 94% | 1013.5 hPa | 0 mm | 0 m/s | 0 W/m² | - |
| 1778012754 | 13.33° C | 93% | 1013.2 hPa | 0 mm | 0 m/s | 0 W/m² | - |
| 1778012154 | 12.78° C | 92% | 1013.2 hPa | 0 mm | 0 m/s | 0 W/m² | - |
| 1778011554 | 12.78° C | 89% | 1013.2 hPa | 0 mm | 0.45 m/s, 210° | 0 W/m² | - |
| 1778010954 | 12.78° C | 90% | 1013.2 hPa | 0 mm | 0.89 m/s, 270° | 0 W/m² | - |
| 1778010354 | 12.78° C | 92% | 1012.9 hPa | 0 mm | 0.45 m/s, 230° | 0 W/m² | - |
| 1778009754 | 12.78° C | 94% | 1012.9 hPa | 0 mm | 0.45 m/s, 228° | 0 W/m² | - |
| 1778009154 | 12.78° C | 94% | 1012.9 hPa | 0 mm | 0 m/s | 0 W/m² | - |
| 1778008554 | 12.78° C | 94% | 1012.9 hPa | 0 mm | 0 m/s | 0 W/m² | - |
| 1778007954 | 13.33° C | 92% | 1012.9 hPa | 0 mm | 0 m/s | 0 W/m² | - |
| 1778007354 | 13.33° C | 93% | 1012.9 hPa | 0 mm | 0.89 m/s, 222° | 0 W/m² | - |
| 1778006754 | 12.78° C | 96% | 1012.9 hPa | 0 mm | 0.45 m/s, 207° | 1 W/m² | - |
| 1778006154 | 13.33° C | 94% | 1012.9 hPa | 0 mm | 0 m/s | 3 W/m² | - |
| 1778005554 | 13.33° C | 94% | 1012.9 hPa | 0 mm | 0.45 m/s, 209° | 6 W/m² | - |
| 1778004954 | 13.89° C | 96% | 1012.9 hPa | 0 mm | 0.45 m/s, 215° | 11 W/m² | - |
| 1778003754 | 13.89° C | 94% | 1012.9 hPa | 0 mm | 0 m/s | 21 W/m² | - |
| 1778003154 | 14.44° C | 92% | 1012.5 hPa | 0 mm | 0 m/s | 24 W/m² | - |
| 1778002554 | 14.44° C | 91% | 1012.9 hPa | 0 mm | 0 m/s | 28 W/m² | - |
| 1778001954 | 15° C | 88% | 1012.9 hPa | 0 mm | 0 m/s | 33 W/m² | - |
* Rain latest hour (hover to see other rain measurements)
** Current wind speed in m/s (hover to see current wind gust speed)